Time,TemperatureF,DewpointF,PressureIn,WindDirection,WindDirectionDegrees,WindSpeedMPH,WindSpeedGustMPH,Humidity,HourlyPrecipIn,Conditions,Clouds,dailyrainin,SolarRadiationWatts/m^2,SoftwareType,DateUTC
2013-11-11 00:03:00,45.0,32.0,-100.00,WSW,256,6.0,19.0,61,0.00,,,0.02,0.000000,,2013-11-11 05:03:00,
2013-11-11 00:13:00,45.0,32.0,-100.00,WSW,256,6.0,19.0,61,0.00,,,0.02,0.000000,,2013-11-11 05:13:00,
2013-11-11 00:23:00,45.0,32.0,-100.00,WSW,256,6.0,19.0,61,0.00,,,0.02,0.000000,,2013-11-11 05:23:00,
2013-11-11 00:54:00,46.0,32.0,-100.00,West,263,5.0,14.0,57,0.00,,,0.02,1.000000,,2013-11-11 05:54:00,
2013-11-11 01:03:00,46.0,32.0,-100.00,West,263,5.0,14.0,57,0.00,,,0.02,1.000000,,2013-11-11 06:03:00,
2013-11-11 01:13:00,46.0,32.0,-100.00,West,263,5.0,14.0,57,0.00,,,0.02,1.000000,,2013-11-11 06:13:00,
2013-11-11 01:22:00,46.0,32.0,-100.00,West,263,5.0,14.0,57,0.00,,,0.02,1.000000,,2013-11-11 06:22:00,
2013-11-11 01:52:00,45.0,32.0,-100.00,NW,310,8.0,17.0,59,0.00,,,0.02,1.000000,,2013-11-11 06:52:00,
2013-11-11 02:02:00,45.0,32.0,-100.00,NW,310,8.0,17.0,59,0.00,,,0.02,1.000000,,2013-11-11 07:02:00,
2013-11-11 02:12:00,45.0,32.0,-100.00,NW,310,8.0,17.0,59,0.00,,,0.02,1.000000,,2013-11-11 07:12:00,
2013-11-11 02:22:00,45.0,32.0,-100.00,NW,310,8.0,17.0,59,0.00,,,0.02,1.000000,,2013-11-11 07:22:00,
2013-11-11 02:52:00,43.0,28.0,-100.00,WNW,297,8.0,21.0,56,0.00,,,0.02,1.000000,,2013-11-11 07:52:00,
2013-11-11 03:02:00,43.0,28.0,-100.00,WNW,297,8.0,21.0,56,0.00,,,0.02,1.000000,,2013-11-11 08:02:00,
2013-11-11 03:12:00,43.0,28.0,-100.00,WNW,297,8.0,21.0,56,0.00,,,0.02,1.000000,,2013-11-11 08:12:00,
2013-11-11 03:22:00,43.0,28.0,-100.00,WNW,297,8.0,21.0,56,0.00,,,0.02,1.000000,,2013-11-11 08:22:00,
2013-11-11 03:52:00,42.0,28.0,-100.00,WNW,299,8.0,16.0,58,0.00,,,0.02,1.000000,,2013-11-11 08:52:00,
2013-11-11 04:02:00,42.0,28.0,-100.00,WNW,299,8.0,16.0,58,0.00,,,0.02,1.000000,,2013-11-11 09:02:00,
2013-11-11 04:11:00,42.0,28.0,-100.00,WNW,299,8.0,16.0,58,0.00,,,0.02,1.000000,,2013-11-11 09:11:00,
2013-11-11 04:22:00,42.0,28.0,-100.00,WNW,299,8.0,16.0,58,0.00,,,0.02,1.000000,,2013-11-11 09:22:00,
2013-11-11 04:54:00,40.0,28.0,-100.00,West,261,4.0,12.0,61,0.00,,,0.02,1.000000,,2013-11-11 09:54:00,
2013-11-11 05:03:00,40.0,28.0,-100.00,West,261,4.0,12.0,61,0.00,,,0.02,1.000000,,2013-11-11 10:03:00,
2013-11-11 05:13:00,40.0,28.0,-100.00,West,261,4.0,12.0,61,0.00,,,0.02,1.000000,,2013-11-11 10:13:00,
2013-11-11 05:23:00,40.0,28.0,-100.00,West,261,4.0,12.0,61,0.00,,,0.02,1.000000,,2013-11-11 10:23:00,
2013-11-11 05:53:00,39.0,27.0,-100.00,West,262,5.0,10.0,61,0.00,,,0.02,0.000000,,2013-11-11 10:53:00,
2013-11-11 06:03:00,39.0,27.0,-100.00,West,262,5.0,10.0,61,0.00,,,0.02,0.000000,,2013-11-11 11:03:00,
2013-11-11 06:12:00,39.0,27.0,-100.00,West,262,5.0,10.0,61,0.00,,,0.02,0.000000,,2013-11-11 11:12:00,
2013-11-11 06:21:00,39.0,27.0,-100.00,West,262,5.0,10.0,61,0.00,,,0.02,0.000000,,2013-11-11 11:21:00,
2013-11-11 06:52:00,39.0,25.0,-100.00,West,265,5.0,12.0,56,0.00,,,0.02,1.000000,,2013-11-11 11:52:00,
2013-11-11 07:02:00,39.0,25.0,-100.00,West,265,5.0,12.0,56,0.00,,,0.02,1.000000,,2013-11-11 12:02:00,
2013-11-11 07:12:00,39.0,25.0,-100.00,West,265,5.0,12.0,56,0.00,,,0.02,1.000000,,2013-11-11 12:12:00,
2013-11-11 07:22:00,39.0,25.0,-100.00,West,265,5.0,12.0,56,0.00,,,0.02,1.000000,,2013-11-11 12:22:00,
2013-11-11 07:52:00,42.0,26.0,-100.00,West,273,5.0,11.0,52,0.00,,,-99.99,39.000000,,2013-11-11 12:52:00,
2013-11-11 08:01:00,42.0,26.0,-100.00,West,273,5.0,11.0,52,0.00,,,-99.99,39.000000,,2013-11-11 13:01:00,
2013-11-11 08:11:00,42.0,26.0,-100.00,West,273,5.0,11.0,52,0.00,,,-99.99,39.000000,,2013-11-11 13:11:00,
2013-11-11 08:22:00,42.0,26.0,-100.00,West,273,5.0,11.0,52,0.00,,,-99.99,39.000000,,2013-11-11 13:22:00,
2013-11-11 08:52:00,45.0,25.0,-100.00,WNW,295,9.0,20.0,46,0.00,,,-99.99,195.000000,,2013-11-11 13:52:00,
2013-11-11 09:02:00,45.0,25.0,-100.00,WNW,295,9.0,20.0,46,0.00,,,-99.99,195.000000,,2013-11-11 14:02:00,
2013-11-11 09:11:00,45.0,25.0,-100.00,WNW,295,9.0,20.0,46,0.00,,,-99.99,195.000000,,2013-11-11 14:11:00,
2013-11-11 09:22:00,45.0,25.0,-100.00,WNW,295,9.0,20.0,46,0.00,,,-99.99,195.000000,,2013-11-11 14:22:00,
2013-11-11 09:52:00,47.0,27.0,-100.00,WNW,282,7.0,18.0,45,0.00,,,0.02,298.000000,,2013-11-11 14:52:00,
2013-11-11 10:02:00,47.0,27.0,-100.00,WNW,282,7.0,18.0,45,0.00,,,0.02,298.000000,,2013-11-11 15:02:00,
2013-11-11 10:11:00,47.0,27.0,-100.00,WNW,282,7.0,18.0,45,0.00,,,0.02,298.000000,,2013-11-11 15:11:00,
2013-11-11 10:22:00,47.0,27.0,-100.00,WNW,282,7.0,18.0,45,0.00,,,0.02,298.000000,,2013-11-11 15:22:00,
2013-11-11 10:53:00,49.0,26.0,-100.00,WNW,297,8.0,19.0,41,0.00,,,0.02,379.000000,,2013-11-11 15:53:00,
2013-11-11 11:03:00,49.0,26.0,-100.00,WNW,297,8.0,19.0,41,0.00,,,0.02,379.000000,,2013-11-11 16:03:00,
2013-11-11 11:13:00,49.0,26.0,-100.00,WNW,297,8.0,19.0,41,0.00,,,0.02,379.000000,,2013-11-11 16:13:00,
2013-11-11 11:23:00,49.0,26.0,-100.00,WNW,297,8.0,19.0,41,0.00,,,0.02,379.000000,,2013-11-11 16:23:00,
2013-11-11 11:53:00,48.0,26.0,-100.00,WNW,284,4.0,18.0,42,0.00,,,0.02,311.000000,,2013-11-11 16:53:00,
2013-11-11 12:03:00,48.0,26.0,-100.00,WNW,284,4.0,18.0,42,0.00,,,0.02,311.000000,,2013-11-11 17:03:00,
2013-11-11 12:12:00,48.0,26.0,-100.00,WNW,284,4.0,18.0,42,0.00,,,0.02,311.000000,,2013-11-11 17:12:00,
2013-11-11 12:22:00,48.0,26.0,-100.00,WNW,284,4.0,18.0,42,0.00,,,0.02,311.000000,,2013-11-11 17:22:00,
2013-11-11 12:52:00,53.0,26.0,-100.00,West,278,7.0,16.0,35,0.00,,,0.02,543.000000,,2013-11-11 17:52:00,
2013-11-11 13:02:00,53.0,26.0,-100.00,West,278,7.0,16.0,35,0.00,,,0.02,543.000000,,2013-11-11 18:02:00,
2013-11-11 13:13:00,53.0,26.0,-100.00,West,278,7.0,16.0,35,0.00,,,0.02,543.000000,,2013-11-11 18:13:00,
2013-11-11 13:23:00,53.0,26.0,-100.00,West,278,7.0,16.0,35,0.00,,,0.02,543.000000,,2013-11-11 18:23:00,
2013-11-11 13:52:00,54.0,26.0,-100.00,WSW,237,7.0,13.0,34,0.00,,,0.02,529.000000,,2013-11-11 18:52:00,
2013-11-11 14:02:00,54.0,26.0,-100.00,WSW,237,7.0,13.0,34,0.00,,,0.02,529.000000,,2013-11-11 19:02:00,
2013-11-11 14:12:00,54.0,26.0,-100.00,WSW,237,7.0,13.0,34,0.00,,,0.02,529.000000,,2013-11-11 19:12:00,
2013-11-11 14:22:00,54.0,26.0,-100.00,WSW,237,7.0,13.0,34,0.00,,,0.02,529.000000,,2013-11-11 19:22:00,
2013-11-11 14:53:00,52.0,31.0,-100.00,SW,223,9.0,19.0,45,0.00,,,0.02,432.000000,,2013-11-11 19:53:00,
2013-11-11 15:02:00,52.0,31.0,-100.00,SW,223,9.0,19.0,45,0.00,,,0.02,432.000000,,2013-11-11 20:02:00,
2013-11-11 15:11:00,52.0,31.0,-100.00,SW,223,9.0,19.0,45,0.00,,,0.02,432.000000,,2013-11-11 20:11:00,
2013-11-11 15:22:00,52.0,31.0,-100.00,SW,223,9.0,19.0,45,0.00,,,0.02,432.000000,,2013-11-11 20:22:00,
2013-11-11 15:52:00,50.0,32.0,-100.00,WSW,240,9.0,18.0,49,0.00,,,0.01,206.000000,,2013-11-11 20:52:00,
2013-11-11 16:02:00,50.0,32.0,-100.00,WSW,240,9.0,18.0,49,0.00,,,0.01,206.000000,,2013-11-11 21:02:00,
2013-11-11 16:12:00,50.0,32.0,-100.00,WSW,240,9.0,18.0,49,0.00,,,0.01,206.000000,,2013-11-11 21:12:00,
2013-11-11 16:22:00,50.0,32.0,-100.00,WSW,240,9.0,18.0,49,0.00,,,0.01,206.000000,,2013-11-11 21:22:00,
2013-11-11 16:55:00,49.0,32.0,-100.00,WSW,241,8.0,17.0,52,0.00,,,0.00,23.000000,,2013-11-11 21:55:00,
2013-11-11 17:04:00,49.0,32.0,-100.00,WSW,241,8.0,17.0,52,0.00,,,0.00,23.000000,,2013-11-11 22:04:00,
2013-11-11 17:14:00,49.0,32.0,-100.00,WSW,241,8.0,17.0,52,0.00,,,0.00,23.000000,,2013-11-11 22:14:00,
2013-11-11 17:24:00,49.0,32.0,-100.00,WSW,241,8.0,17.0,52,0.00,,,0.00,23.000000,,2013-11-11 22:24:00,
2013-11-11 17:53:00,49.0,33.0,-100.00,SW,227,8.0,15.0,53,0.00,,,0.00,1.000000,,2013-11-11 22:53:00,
2013-11-11 18:03:00,49.0,33.0,-100.00,SW,227,8.0,15.0,53,0.00,,,0.00,1.000000,,2013-11-11 23:03:00,
2013-11-11 18:13:00,49.0,33.0,-100.00,SW,227,8.0,15.0,53,0.00,,,0.00,1.000000,,2013-11-11 23:13:00,
2013-11-11 18:22:00,49.0,33.0,-100.00,SW,227,8.0,15.0,53,0.00,,,0.00,1.000000,,2013-11-11 23:22:00,
2013-11-11 18:53:00,50.0,32.0,-100.00,SW,236,8.0,18.0,49,0.00,,,0.00,0.000000,,2013-11-11 23:53:00,
2013-11-11 19:03:00,50.0,32.0,-100.00,SW,236,8.0,18.0,49,0.00,,,0.00,0.000000,,2013-11-12 00:03:00,
2013-11-11 19:12:00,50.0,32.0,-100.00,SW,236,8.0,18.0,49,0.00,,,0.00,0.000000,,2013-11-12 00:12:00,
2013-11-11 19:22:00,50.0,32.0,-100.00,SW,236,8.0,18.0,49,0.00,,,0.00,0.000000,,2013-11-12 00:22:00,
2013-11-11 19:52:00,51.0,37.0,-100.00,SW,235,10.0,25.0,59,0.00,,,0.00,1.000000,,2013-11-12 00:52:00,
2013-11-11 20:02:00,51.0,37.0,-100.00,SW,235,10.0,25.0,59,0.00,,,0.00,1.000000,,2013-11-12 01:02:00,
2013-11-11 20:11:00,51.0,37.0,-100.00,SW,235,10.0,25.0,59,0.00,,,0.00,1.000000,,2013-11-12 01:11:00,
2013-11-11 20:22:00,51.0,37.0,-100.00,SW,235,10.0,25.0,59,0.00,,,0.00,1.000000,,2013-11-12 01:22:00,
2013-11-11 20:52:00,52.0,39.0,-100.00,SW,233,10.0,18.0,61,0.00,,,0.00,0.000000,,2013-11-12 01:52:00,
2013-11-11 21:01:00,52.0,39.0,-100.00,SW,233,10.0,18.0,61,0.00,,,0.00,0.000000,,2013-11-12 02:01:00,
2013-11-11 21:12:00,52.0,39.0,-100.00,SW,233,10.0,18.0,61,0.00,,,0.00,0.000000,,2013-11-12 02:12:00,
2013-11-11 21:22:00,52.0,39.0,-100.00,SW,233,10.0,18.0,61,0.00,,,0.00,0.000000,,2013-11-12 02:22:00,
2013-11-11 21:52:00,53.0,39.0,-100.00,SW,236,12.0,25.0,59,0.00,,,0.00,1.000000,,2013-11-12 02:52:00,
2013-11-11 22:02:00,53.0,39.0,-100.00,SW,236,12.0,25.0,59,0.00,,,0.00,1.000000,,2013-11-12 03:02:00,
2013-11-11 22:11:00,53.0,39.0,-100.00,SW,236,12.0,25.0,59,0.00,,,0.00,1.000000,,2013-11-12 03:11:00,
2013-11-11 22:22:00,53.0,39.0,-100.00,SW,236,12.0,25.0,59,0.00,,,0.00,1.000000,,2013-11-12 03:22:00,
2013-11-11 22:54:00,53.0,36.0,-100.00,SW,236,12.0,26.0,52,0.00,,,0.00,1.000000,,2013-11-12 03:54:00,
2013-11-11 23:05:00,53.0,36.0,-100.00,SW,236,12.0,26.0,52,0.00,,,0.00,1.000000,,2013-11-12 04:05:00,
2013-11-11 23:14:00,53.0,36.0,-100.00,SW,236,12.0,26.0,52,0.00,,,0.00,1.000000,,2013-11-12 04:14:00,
2013-11-11 23:24:00,53.0,36.0,-100.00,SW,236,12.0,26.0,52,0.00,,,0.00,1.000000,,2013-11-12 04:24:00,
2013-11-11 23:53:00,53.0,37.0,-100.00,WSW,238,13.0,28.0,55,0.00,,,-99.99,0.000000,,2013-11-12 04:53:00,